Weather History for Grove, OK

Change the Weather History Date:

Sunday, May 5, 2013

  Actual Average (KSLG) Record (KSLG)
Temperature  
Mean Temperature 47 °F -  
Max Temperature 59 °F 71 °F 89 °F (2014)
Min Temperature 35 °F 52 °F 44 °F (2008)
Degree Days  
Heating Degree Days 18    
Moisture  
Dew Point 45 °F    
Average Humidity 86    
Maximum Humidity 100    
Minimum Humidity 67    
Precipitation  
Precipitation 0.00 in - - ()
Sea Level Pressure  
Sea Level Pressure 30.08 in    
Wind  
Wind Speed 3 mph (NW)    
Max Wind Speed 13 mph    
Max Gust Speed 24 mph    
Visibility 10 miles    
Events      
Averages and records for this station are not official NWS values.
T = Trace of Precipitation, MM = Missing Value Source: NWS Daily Summary

Daily Weather History Graph

Daily Weather History Graph

Search for Another Location

Airport:

Trip Planner

Search our weather history database for the weather conditions in past years. The results will help you decide how hot, cold, wet, or windy it might be!

Date:

Astronomy

May. 05, 2013 Rise Set
Actual Time 6:20 AM CDT 8:11 PM CDT
Civil Twilight 5:52 AM CDT 8:39 PM CDT
Nautical Twilight 5:18 AM CDT 9:13 PM CDT
Astronomical Twilight 4:42 AM CDT 9:49 PM CDT
Moon 3:44 AM CDT (5/5) 4:17 PM CDT (5/5)
Length of Visible Light 14h 46m
Length of Day
13h 50m
Waning Crescent, 18% of the Moon is Illuminated
May 5
Waning Crescent
May 9
New
May 17
First Quarter
May 24
Full
May 31
Last Quarter

Hourly Weather History & Observations

Time (CDT) Temp. Windchill Dew Point Humidity Pressure Visibility Wind Dir Wind Speed Gust Speed Precip Events Conditions
12:15 AM 42.8 °F - 37.4 °F 81% 30.05 in 10.0 mi Calm Calm - N/A   Clear
12:35 AM 41.0 °F - 37.4 °F 87% 30.05 in 10.0 mi Calm Calm - N/A   Clear
12:55 AM 41.0 °F - 41.0 °F 100% 30.06 in 10.0 mi Calm Calm - N/A   Clear
1:15 AM 41.0 °F - 37.4 °F 87% 30.05 in 10.0 mi Calm Calm - N/A   Clear
1:35 AM 41.0 °F - 37.4 °F 87% 30.05 in 10.0 mi Calm Calm - N/A   Clear
1:55 AM 41.0 °F - 37.4 °F 87% 30.04 in 10.0 mi Calm Calm - N/A   Clear
2:15 AM 41.0 °F - 41.0 °F 100% 30.04 in 10.0 mi Calm Calm - N/A   Clear
2:35 AM 41.0 °F - 41.0 °F 100% 30.04 in 10.0 mi Calm Calm - N/A   Clear
2:55 AM 35.6 °F - 35.6 °F 100% 30.04 in 10.0 mi Calm Calm - N/A   Clear
3:15 AM 37.4 °F - 37.4 °F 100% 30.04 in 10.0 mi Calm Calm - N/A   Clear
3:35 AM 37.4 °F - 37.4 °F 100% 30.05 in 10.0 mi Calm Calm - N/A   Clear
3:55 AM 37.4 °F - 37.4 °F 100% 30.04 in 10.0 mi Calm Calm - N/A   Mostly Cloudy
4:15 AM 41.0 °F - 41.0 °F 100% 30.06 in 10.0 mi Calm Calm - N/A   Overcast
4:35 AM 41.0 °F - 41.0 °F 100% 30.05 in 10.0 mi Calm Calm - N/A   Overcast
4:55 AM 42.8 °F - 42.8 °F 100% 30.06 in 10.0 mi Calm Calm - N/A   Overcast
5:15 AM 42.8 °F - 42.8 °F 100% 30.07 in 10.0 mi Calm Calm - N/A   Overcast
5:35 AM 42.8 °F - 42.8 °F 100% 30.07 in 10.0 mi Calm Calm - N/A   Overcast
5:55 AM 42.8 °F - 42.8 °F 100% 30.06 in 10.0 mi Calm Calm - N/A   Overcast
6:15 AM 42.8 °F - 42.8 °F 100% 30.07 in 10.0 mi Calm Calm - N/A   Overcast
6:35 AM 42.8 °F - 42.8 °F 100% 30.08 in 10.0 mi Calm Calm - N/A   Overcast
6:55 AM 44.6 °F 42.2 °F 44.6 °F 100% 30.08 in 10.0 mi NW 4.6 mph - N/A   Overcast
7:15 AM 44.6 °F 43.1 °F 44.6 °F 100% 30.08 in 10.0 mi NW 3.5 mph - N/A   Overcast
7:35 AM 44.6 °F 41.4 °F 44.6 °F 100% 30.09 in 10.0 mi NW 5.8 mph - N/A   Overcast
7:55 AM 44.6 °F 40.7 °F 44.6 °F 100% 30.10 in 10.0 mi NW 6.9 mph - N/A   Overcast
8:15 AM 46.4 °F 44.3 °F 46.4 °F 100% 30.10 in 10.0 mi NNW 4.6 mph - N/A   Overcast
8:35 AM 46.4 °F 42.4 °F 46.4 °F 100% 30.11 in 10.0 mi NW 8.1 mph - N/A   Overcast
9:15 AM 48.2 °F - 44.6 °F 87% 30.11 in 7.0 mi NW 5.8 mph - N/A   Overcast
9:35 AM 46.4 °F 43.5 °F 46.4 °F 100% 30.12 in 7.0 mi NNW 5.8 mph - N/A   Overcast
9:55 AM 48.2 °F - 44.6 °F 87% 30.12 in 10.0 mi NW 5.8 mph - N/A   Overcast
10:15 AM 50.0 °F - 44.6 °F 82% 30.12 in 10.0 mi NW 6.9 mph - N/A   Overcast
10:35 AM 51.8 °F - 46.4 °F 82% 30.12 in 10.0 mi NNW 6.9 mph - N/A   Overcast
10:55 AM 51.8 °F - 44.6 °F 76% 30.12 in 10.0 mi NNW 6.9 mph - N/A   Overcast
11:15 AM 53.6 °F - 46.4 °F 77% 30.12 in 10.0 mi NW 8.1 mph - N/A   Overcast
11:35 AM 51.8 °F - 46.4 °F 82% 30.13 in 10.0 mi NW 8.1 mph - N/A   Overcast
11:55 AM 51.8 °F - 46.4 °F 82% 30.13 in 10.0 mi North 5.8 mph - N/A   Overcast
12:15 PM 53.6 °F - 46.4 °F 77% 30.11 in 10.0 mi NNW 9.2 mph - N/A   Mostly Cloudy
12:35 PM 53.6 °F - 44.6 °F 72% 30.11 in 10.0 mi NNW 8.1 mph - N/A   Mostly Cloudy
12:55 PM 55.4 °F - 46.4 °F 72% 30.11 in 10.0 mi NW 10.4 mph - N/A   Mostly Cloudy
1:15 PM 55.4 °F - 46.4 °F 72% 30.11 in 10.0 mi NW 11.5 mph - N/A   Overcast
1:35 PM 55.4 °F - 46.4 °F 72% 30.11 in 10.0 mi NW 10.4 mph - N/A   Overcast
1:55 PM 55.4 °F - 46.4 °F 72% 30.10 in 10.0 mi NW 10.4 mph 24.2 mph N/A   Overcast
2:15 PM 57.2 °F - 46.4 °F 67% 30.10 in 10.0 mi NNW 12.7 mph 18.4 mph N/A   Overcast
2:35 PM 57.2 °F - 46.4 °F 67% 30.10 in 10.0 mi NW 11.5 mph - N/A   Overcast
2:55 PM 57.2 °F - 46.4 °F 67% 30.10 in 10.0 mi West 8.1 mph - N/A   Overcast
3:15 PM 55.4 °F - 48.2 °F 77% 30.10 in 10.0 mi NW 9.2 mph 17.3 mph N/A   Overcast
3:35 PM 55.4 °F - 50.0 °F 82% 30.09 in 10.0 mi NW 9.2 mph - N/A   Overcast
3:55 PM 55.4 °F - 48.2 °F 77% 30.08 in 10.0 mi NNW 8.1 mph - N/A   Overcast
4:15 PM 57.2 °F - 50.0 °F 77% 30.08 in 10.0 mi WNW 6.9 mph - N/A   Overcast
4:35 PM 55.4 °F - 48.2 °F 77% 30.08 in 10.0 mi NW 5.8 mph - N/A   Overcast
4:55 PM 55.4 °F - 48.2 °F 77% 30.08 in 10.0 mi NW 8.1 mph - N/A   Overcast
5:15 PM 57.2 °F - 50.0 °F 77% 30.08 in 10.0 mi NNW 6.9 mph - N/A   Overcast
5:35 PM 57.2 °F - 50.0 °F 77% 30.08 in 10.0 mi NNW 6.9 mph - N/A   Overcast
5:55 PM 59.0 °F - 50.0 °F 72% 30.07 in 10.0 mi NW 4.6 mph - N/A   Overcast
6:15 PM 57.2 °F - 50.0 °F 77% 30.07 in 7.0 mi Calm Calm - N/A   Mostly Cloudy
6:35 PM 57.2 °F - 50.0 °F 77% 30.07 in 10.0 mi WNW 5.8 mph - N/A   Mostly Cloudy
6:55 PM 57.2 °F - 50.0 °F 77% 30.07 in 5.0 mi NW 8.1 mph - N/A   Haze
7:15 PM 57.2 °F - 48.2 °F 72% 30.08 in 7.0 mi NW 9.2 mph - N/A   Overcast
7:35 PM 57.2 °F - 48.2 °F 72% 30.08 in 7.0 mi NW 8.1 mph - N/A   Overcast
7:55 PM 55.4 °F - 48.2 °F 77% 30.08 in 7.0 mi NW 6.9 mph - N/A   Overcast
8:15 PM 55.4 °F - 46.4 °F 72% 30.08 in 10.0 mi NW 5.8 mph - N/A   Overcast
8:35 PM 55.4 °F - 48.2 °F 77% 30.07 in 10.0 mi WNW 3.5 mph - N/A   Overcast
8:55 PM 55.4 °F - 48.2 °F 77% 30.07 in 5.0 mi WNW 6.9 mph - N/A   Haze
9:15 PM 53.6 °F - 46.4 °F 77% 30.07 in 10.0 mi West 4.6 mph - N/A   Scattered Clouds
9:55 PM 53.6 °F - 50.0 °F 88% 30.08 in 10.0 mi NW 4.6 mph - N/A   Mostly Cloudy
10:15 PM 53.6 °F - 48.2 °F 82% 30.08 in 10.0 mi Calm Calm - N/A   Mostly Cloudy
10:35 PM 51.8 °F - 48.2 °F 88% 30.08 in 10.0 mi Calm Calm - N/A   Clear
10:55 PM 51.8 °F - 48.2 °F 88% 30.09 in 7.0 mi Calm Calm - N/A   Scattered Clouds
11:15 PM 51.8 °F - 48.2 °F 88% 30.09 in 10.0 mi Calm Calm - N/A   Overcast
11:35 PM 51.8 °F - 50.0 °F 94% 30.09 in 7.0 mi Calm Calm - N/A   Overcast
11:55 PM 51.8 °F - 50.0 °F 94% 30.09 in 7.0 mi Calm Calm - N/A   Overcast